This is the latest recevied weather packets stored in our database for station/object W0WC. If no packets are shown the sender has not sent any weather packets the latest 10 day(s).
| Time | Temp. | Humidity | Pressure | Rain* | Wind** | Luminosity | Snow |
|---|---|---|---|---|---|---|---|
| 1777562096 | 15.56° C | 48% | 1019.8 hPa | 0 mm | - | 314 W/m² | - |
| 1777561794 | 15.56° C | 46% | 1020.1 hPa | 0 mm | - | 315 W/m² | - |
| 1777561489 | 15.56° C | 47% | 1020.1 hPa | 0 mm | - | 336 W/m² | - |
| 1777561185 | 15° C | 48% | 1020.2 hPa | 0 mm | - | 376 W/m² | - |
| 1777560879 | 15.56° C | 46% | 1020.1 hPa | 0 mm | - | 413 W/m² | - |
| 1777560577 | 15.56° C | 49% | 1020.2 hPa | 0 mm | - | 443 W/m² | - |
| 1777560275 | 15° C | 53% | 1020.1 hPa | 0 mm | - | 460 W/m² | - |
| 1777559973 | 15° C | 52% | 1020.1 hPa | 0 mm | - | 433 W/m² | - |
| 1777559673 | 15° C | 53% | 1019.9 hPa | 0 mm | - | 404 W/m² | - |
| 1777559371 | 14.44° C | 56% | 1020 hPa | 0 mm | - | 354 W/m² | - |
| 1777559068 | 14.44° C | 56% | 1020 hPa | 0 mm | - | 403 W/m² | - |
| 1777558767 | 14.44° C | 56% | 1020.2 hPa | 0 mm | - | 375 W/m² | - |
| 1777558464 | 13.89° C | 58% | 1020 hPa | 0 mm | - | 342 W/m² | - |
| 1777558160 | 13.89° C | 58% | 1019.8 hPa | 0 mm | - | 318 W/m² | - |
| 1777557857 | 13.33° C | 59% | 1020 hPa | 0 mm | - | 342 W/m² | - |
| 1777557555 | 13.33° C | 62% | 1019.9 hPa | 0 mm | - | 287 W/m² | - |
| 1777557250 | 12.78° C | 63% | 1019.9 hPa | 0 mm | - | 219 W/m² | - |
| 1777556946 | 12.78° C | 64% | 1019.9 hPa | 0 mm | - | 288 W/m² | - |
| 1777556641 | 12.22° C | 65% | 1019.8 hPa | 0 mm | - | 285 W/m² | - |
| 1777556336 | 11.67° C | 65% | 1020 hPa | 0 mm | - | 288 W/m² | - |
| 1777556033 | 11.67° C | 67% | 1019.8 hPa | 0 mm | - | 263 W/m² | - |
| 1777555728 | 11.67° C | 69% | 1019.8 hPa | 0 mm | - | 224 W/m² | - |
| 1777555424 | 11.11° C | 69% | 1019.8 hPa | 0 mm | - | 198 W/m² | - |
| 1777555120 | 11.11° C | 70% | 1019.7 hPa | 0 mm | - | 153 W/m² | - |
| 1777554818 | 11.11° C | 70% | 1019.9 hPa | 0 mm | - | 129 W/m² | - |
* Rain latest hour (hover to see other rain measurements)
** Current wind speed in m/s (hover to see current wind gust speed)